sat.trackr.live / text

‹ back to catalog

STARLINK-32471

NORAD 61968 · 2024-210K

PAYLOAD ACTIVE UNKNOWN

§ Identity

Operator
Country
US
Launch date
2024-11-14
Launch site
AFETR
Launch vehicle
Mass (kg)
RCS (m²)

Purposes: comms

External: N2YO · Heavens-Above · Gunter

§ Orbital elements

Epoch: 2026-09-21T09:30:26.441568Z

Period
94.27 min
Inclination
43.0014°
Eccentricity
0.0001580
Mean motion
15.27584432 rev/d
Perigee alt
482.0 km
Apogee alt
484.1 km
Semi-major
6,861.2 km
B*
5.9817e-4
RAAN
147.4101°
Arg perigee
262.4808°
Mean anomaly
97.5864°
Rev number
10,493

§ Raw data

STARLINK-324711 61968U 24210K   26264.39613937  .00016237  00000+0  59817-3 0  99912 61968  43.0014 147.4101 0001580 262.4808  97.5864 15.27584432104933

JSON: /api/v1/satellites/61968 · /tle

For live sub-satellite position, see the globe view (requires WebGL).

§ Visibility from observer

Set your observer location to see the next 7 days of passes ≥ 10°. The values pass through the URL so the page stays shareable.

No JS? Fill the form by hand. The geolocation button needs JavaScript.